Showing default

GSAT 15, 41028

Orbit data source: Space-Track

GSAT 15, 41028 is a payload satellite owned by ISRO (IN) in GEO that was launched on Tue, 10 Nov 2015 UTC via an ARIANE 5ECA launch vehicle from the French Guiana (FRGUI). Payload-class satellites include a variety of spacecraft equipped with specific instruments for various scientific and technological missions. These include communications satellites like Starlink; space stations such as the ISS; scientific satellites like the Hubble; Earth observation satellites from companies like Planet Labs, Umbra, and HawkEye 360; GPS; miniature CubeSats for education and research; and military/defense satellites.

Not visible in the next 10 days
Identifier
41028, 2015-065A
Orbit
GEO
Country
Flag of ININ / IND
Related business
Manufacturer
ISRO SAC/Banga
Mission
Operational Civil Communications
Bus & Motor
I3K, ISRO LAM
Mass
3,165 kg wet, ~1,200 kg dry
Launch date (UTC)
2015-11-10 (10 years ago)
Launch vehicle
ARIANE 5ECA
Launch site
French Guiana (FRGUI)
Object type
Payload
Rocket body
Debris
Shape & HBR
Box + 2 Pan, 7.8 m
Radar Cross Section
15.451 m², Large (>1 m²)

Expand to show TLE details & history
Last TLE update: 13 hours ago

TLE from 13 hours ago
0 GSAT 15
1 41028U 15065A   25305.66852682 -.00000247  00000-0  00000-0 0  9994
2 41028   0.0726  88.5613 0002734 118.3729 168.4766  1.00271908 36511
Epoch: 2025-11-01T16:02Z
TLE epoch observation values (Epoch: 2025-11-01T16:02:40.717Z)
Latitude
-0.05327°
Longitude
93.514°
Altitude
35,797.4 km
Speed
3.074 km/s
True Right ascension
01h 01m 30s
True Declination
0° 03' 12"
Sunlit
Object was in daylight at epoch
Visualization orbit readout
Latitude
Unknown
Longitude
Unknown
Altitude
Unknown
Speed
Unknown
Apparent Right ascension
Unknown
Apparent Declination
Unknown
Sunlit
N/A
Visualization observer readout
Local Sidereal Time
01:07:19
Azimuth
Unknown
Elevation
Unknown
Doppler factor
Unknown
Orbital elements
Apogee altitude
35,799.159 km
Perigee altitude
35,776.103 km
Semi-major axis
42,165.768 km
Eccentricity
0.00027
Inclination
0.0726°
RAAN
88.5613°
Arg. of periapsis
118.3729°
True anomaly
168.48286°
Mean anomaly
168.4766°
Eccentric anomaly
168.47973°
Mean motion
0.25067 °/min
Orbital period
1,436.15 mins
BSTAR
0
Loading maneuver chart data...
Computing Atmospheric mass density...
Loading historical data...
Loading historical data...
Loading historical data...
Loading historical data...
Loading historical data...
Loading historical data...
Loading historical data...
Other satellites on launch #65 in the year 2015 (2015-11-10 UTC)

Documentation

Showing up to 5 results
|